軌道要素
Epoch 2015 May 18.0 TT = JDT 2457160.5
T 2015 May 15.68329 TT MPCW
q 2.0915837 (2000.0) P Q
z +0.0026324 Peri. 163.98314 +0.02509212 +0.56008091
+/-0.0000610 Node 100.29147 -0.98447482 +0.15778752
e 0.9944941 Incl. 57.30922 -0.17372307 -0.81327269
From 66 observations 2015 June 20-Aug. 21, mean residual 0".4.
|